STARLINK-30820, 58190

Orbit data source: Space-Track

STARLINK-30820, 58190 is a payload satellite owned by SpaceX/Seattle (US) in LEO that was launched on Mon, 30 Oct 2023 UTC via an FALCON 9 launch vehicle from the Air Force Eastern Test Range (AFETR). Payload-class satellites include a variety of spacecraft equipped with specific instruments for various scientific and technological missions. These include communications satellites like Starlink; space stations such as the ISS; scientific satellites like the Hubble; Earth observation satellites from companies like Planet Labs, Umbra, and HawkEye 360; GPS; miniature CubeSats for education and research; and military/defense satellites.

Loading next visibility...
Identifier
58190, 2023-167R
Orbit
LEO
Country
Flag of USUS
Related business
Manufacturer
SpaceX/Seattle
Mission
Operational Commercial Communications
Bus & Motor
STARLINK V2M, Unknown motor
Mass
730 kg wet, ~700 kg dry
Launch date (UTC)
2023-10-30 (3 years ago)
Launch vehicle
FALCON 9
Launch site
Air Force Eastern Test Range (AFETR)
Object type
Payload
Rocket body
Debris
Shape & HBR
Box + 2 Pan, 17.7 m
Radar Cross Section
33.884 m², Large (>1 m²)

Expand to show TLE details & history
Last TLE update: 2 days ago

TLE from 2 days ago
0 STARLINK-30820
1 58190U 23167R   26171.37528588  .00000110  00000-0  13526-4 0  9998
2 58190  43.0054 283.1326 0001537 262.6932  97.3745 15.27574784146693
Epoch: 2026-06-20T09:00Z
TLE epoch observation values (Epoch: 2026-06-20T09:00:24.700Z)
Latitude
-0°
Longitude
-120.56113°
Altitude
482.976 km
Speed
7.626 km/s
True Right ascension
18h 52m 31s
True Declination
0° 00' 00"
Sunlit
Object was in full shadow at epoch
Visualization orbit readout
Latitude
Unknown
Longitude
Unknown
Altitude
Unknown
Speed
Unknown
Apparent Right ascension
Unknown
Apparent Declination
Unknown
Sunlit
N/A
Visualization observer readout
Local Sidereal Time
00:32:05
Azimuth
Unknown
Elevation
Unknown
Doppler factor
Unknown
Orbital elements
Apogee altitude
486.064 km
Perigee altitude
483.954 km
Semi-major axis
6,863.146 km
Eccentricity
0.00015
Inclination
43.0054°
RAAN
283.1326°
Arg. of periapsis
262.6932°
True anomaly
97.39197°
Mean anomaly
97.3745°
Eccentric anomaly
97.38323°
Mean motion
3.81732 °/min
Orbital period
94.31 mins
BSTAR
0.000013526
Loading maneuver chart data...
Computing Atmospheric mass density...
Loading historical data...
Loading historical data...
Loading historical data...
Loading historical data...
Loading historical data...
Loading historical data...
Loading historical data...

Documentation

Showing up to 5 results
|